NOAA NWS Hourly Roundups by Site

Regional Weather Roundup for Norman, OK

To Select Another Site Choose from List

Select Site:  

000
ASUS44 KOUN 251010
RWROK

WEATHER ROUNDUP FOR OKLAHOMA
NATIONAL WEATHER SERVICE NORMAN OK
500 AM CDT SAT JUN 25 2022

NOTE: "FAIR" INDICATES FEW OR NO CLOUDS BELOW 12,000 FEET WITH NO
      SIGNIFICANT WEATHER AND/OR OBSTRUCTIONS TO VISIBILITY.

OKZ001>007-009>012-014-015-017-251100-
NORTHWEST OKLAHOMA AND THE PANHANDLE

CITY           SKY/WX    TMP DP  RH WIND       PRES   REMARKS
GAGE           PTCLDY    80  50  34 S16       29.88S
GUYMON         CLEAR     74  57  55 NW9       29.92R
ENID/WOODRING  CLEAR     77  61  57 S9        29.86S
$$

OKZ016-021>023-033>039-044-045-251100-
SOUTHWEST OKLAHOMA

CITY           SKY/WX    TMP DP  RH WIND       PRES   REMARKS
LAWTON/REGL    CLEAR     74  60  61 CALM      29.90R
LAWTON/FT SILL CLEAR     73  61  65 SE6       29.88R
FREDERICK      CLEAR     78  54  43 S10       29.86R
CLINTON        CLEAR     78  53  41 S16       29.91R
HOBART         CLEAR     79  54  41 S16       29.90R
ALTUS AFB      CLEAR     71  54  54 SE8       29.87R
$$

OKZ018>020-024>031-251100-
CENTRAL OKLAHOMA

CITY           SKY/WX    TMP DP  RH WIND       PRES   REMARKS
OKLAHOMA CITY  CLEAR     71  65  81 S7        29.90R
OKC/WILEY POST CLEAR     81  62  52 S13       29.89S
OKC/TINKER AFB CLEAR     77  65  65 S13       29.88R
STILLWATER     CLEAR     79  69  71 S7        29.88R
GUTHRIE        CLEAR     80  64  58 S12       29.88R
$$

OKZ008-013-054>072-251100-
NORTHEAST OKLAHOMA

CITY           SKY/WX    TMP DP  RH WIND       PRES   REMARKS
TULSA          CLEAR     83  73  72 S14       29.87S
TULSA/JONES    CLEAR     80  73  79 SE5       29.89S
PONCA CITY     CLEAR     82  69  64 S10G18    29.86S
BARTLESVILLE   CLEAR     77  74  90 SE5       29.89S
MUSKOGEE       CLEAR     78  73  84 S6        29.92S
$$

OKZ032-040>043-046>053-073>077-251100-
SOUTH CENTRAL/SOUTHEAST OKLAHOMA

CITY           SKY/WX    TMP DP  RH WIND       PRES   REMARKS
ARDMORE/DWNTWN CLEAR     77  66  68 CALM      29.91S
MCALESTER      CLEAR     81  72  74 SE6       29.92S
$$



 

View Past Reports for Norman, OK.

Products Courtesy of NOAA-NWS
NWS Information Parsing Script by Ken True at Saratoga Weather - Script by SE Lincoln Weather.